Terminal Aerodrome Forecast
Issued by NWS Northern Indiana

Home | Current Version | Previous Version | Graphics & Text | Print | Product List | Glossary On
Versions: 1 2 3 4 5 6 7 8 9 10 11 12 13 14
000
FTUS43 KIWX 241700
TAFFWA
TAF
KFWA 241738Z 2418/2518 11008KT P6SM SCT050 BKN200
     FM250000 10004KT P6SM SCT030 BKN250
      TEMPO 2509/2513 5SM BR BKN030
     FM251300 18005KT P6SM SCT035=

USA.gov is the U.S. government's official web portal to all federal, state and local government web resources and services.